Time,TemperatureF,DewpointF,PressureIn,WindDirection,WindDirectionDegrees,WindSpeedMPH,WindSpeedGustMPH,Humidity,HourlyPrecipIn,Conditions,Clouds,dailyrainin,SoftwareType,DateUTC
2013-07-10 00:04:00,79.2,65.0,30.12,SSW,203,0.0,0.0,62,0.00,,,0.00,WSDL version 430,2013-07-10 05:04:00,
2013-07-10 00:09:00,79.0,64.9,30.12,SSW,203,0.0,0.0,62,0.00,,,0.00,WSDL version 430,2013-07-10 05:09:00,
2013-07-10 00:14:00,78.7,64.6,30.12,SSW,203,0.0,0.0,62,0.00,,,0.00,WSDL version 430,2013-07-10 05:14:00,
2013-07-10 00:19:00,78.8,65.0,30.12,SSW,203,0.0,0.0,63,0.00,,,0.00,WSDL version 430,2013-07-10 05:19:00,
2013-07-10 00:24:00,78.6,64.8,30.12,SSW,203,0.0,0.0,63,0.00,,,0.00,WSDL version 430,2013-07-10 05:24:00,
2013-07-10 00:29:00,78.4,65.1,30.12,SSW,203,0.0,0.0,64,0.00,,,0.00,WSDL version 430,2013-07-10 05:29:00,
2013-07-10 00:34:00,78.5,65.3,30.12,SSW,203,0.0,0.0,64,0.00,,,0.00,WSDL version 430,2013-07-10 05:34:00,
2013-07-10 00:39:00,78.2,65.0,30.12,SSW,203,0.0,0.0,64,0.00,,,0.00,WSDL version 430,2013-07-10 05:39:00,
2013-07-10 00:44:00,78.2,65.4,30.12,SSW,203,0.0,0.0,65,0.00,,,0.00,WSDL version 430,2013-07-10 05:44:00,
2013-07-10 00:49:00,78.1,65.0,30.12,SSW,203,0.0,0.0,64,0.00,,,0.00,WSDL version 430,2013-07-10 05:49:00,
2013-07-10 00:54:00,78.0,65.0,30.12,SSW,203,0.0,0.0,65,0.00,,,0.00,WSDL version 430,2013-07-10 05:54:00,
2013-07-10 00:59:00,78.0,65.3,30.12,SSW,203,0.0,0.0,65,0.00,,,0.00,WSDL version 430,2013-07-10 05:59:00,
2013-07-10 01:04:00,77.8,65.1,30.12,SSW,203,0.0,0.0,65,0.00,,,0.00,WSDL version 430,2013-07-10 06:04:00,
2013-07-10 01:09:00,77.8,65.3,30.12,SSW,203,0.0,0.0,66,0.00,,,0.00,WSDL version 430,2013-07-10 06:09:00,
2013-07-10 01:14:00,77.7,65.5,30.12,SSW,203,0.0,0.0,66,0.00,,,0.00,WSDL version 430,2013-07-10 06:14:00,
2013-07-10 01:19:00,77.4,65.2,30.12,SSW,203,0.0,0.0,66,0.00,,,0.00,WSDL version 430,2013-07-10 06:19:00,
2013-07-10 01:24:00,77.5,65.3,30.12,SSW,203,0.0,0.0,66,0.00,,,0.00,WSDL version 430,2013-07-10 06:24:00,
2013-07-10 01:29:00,77.3,65.0,30.12,SSW,203,0.0,0.0,66,0.00,,,0.00,WSDL version 430,2013-07-10 06:29:00,
2013-07-10 01:34:00,77.3,65.3,30.12,SSW,203,0.0,0.0,67,0.00,,,0.00,WSDL version 430,2013-07-10 06:34:00,
2013-07-10 01:39:00,77.4,65.6,30.12,SSW,203,0.0,0.0,67,0.00,,,0.00,WSDL version 430,2013-07-10 06:39:00,
2013-07-10 01:44:00,77.0,65.3,30.12,SSW,203,0.0,0.0,68,0.00,,,0.00,WSDL version 430,2013-07-10 06:44:00,
2013-07-10 01:49:00,77.0,65.2,30.12,SSW,203,0.0,0.0,67,0.00,,,0.00,WSDL version 430,2013-07-10 06:49:00,
2013-07-10 01:54:00,77.3,65.8,30.12,SSW,203,0.0,0.0,67,0.00,,,0.00,WSDL version 430,2013-07-10 06:54:00,
2013-07-10 01:59:00,77.0,65.3,30.09,South,180,0.0,0.0,68,0.00,,,0.00,WSDL version 430,2013-07-10 06:59:00,
2013-07-10 02:04:00,76.7,65.4,30.09,South,180,0.0,0.0,68,0.00,,,0.00,WSDL version 430,2013-07-10 07:04:00,
2013-07-10 02:09:00,77.0,65.6,30.09,South,180,0.0,0.0,68,0.00,,,0.00,WSDL version 430,2013-07-10 07:09:00,
2013-07-10 02:14:00,77.4,65.8,30.12,SE,135,0.0,0.9,67,0.00,,,0.00,WSDL version 430,2013-07-10 07:14:00,
2013-07-10 02:19:00,77.1,65.3,30.12,SE,135,0.0,0.9,67,0.00,,,0.00,WSDL version 430,2013-07-10 07:19:00,
2013-07-10 02:24:00,76.9,65.2,30.12,SSW,203,0.2,1.3,68,0.00,,,0.00,WSDL version 430,2013-07-10 07:24:00,
2013-07-10 02:29:00,76.8,65.5,30.12,SSW,203,0.9,1.3,68,0.00,,,0.00,WSDL version 430,2013-07-10 07:29:00,
2013-07-10 02:34:00,77.4,66.0,30.12,SSW,203,1.1,1.6,68,0.00,,,0.00,WSDL version 430,2013-07-10 07:34:00,
2013-07-10 02:39:00,78.4,66.6,30.12,SSW,203,0.5,1.6,66,0.00,,,0.00,WSDL version 430,2013-07-10 07:39:00,
2013-07-10 02:44:00,78.0,65.7,30.12,SSW,203,0.0,1.6,66,0.00,,,0.00,WSDL version 430,2013-07-10 07:44:00,
2013-07-10 02:49:00,77.6,65.4,30.12,SSW,203,0.2,1.3,66,0.00,,,0.00,WSDL version 430,2013-07-10 07:49:00,
2013-07-10 02:54:00,77.7,65.5,30.12,SSW,203,0.0,1.3,67,0.00,,,0.00,WSDL version 430,2013-07-10 07:54:00,
2013-07-10 02:59:00,78.2,66.2,30.12,SSW,203,0.0,0.9,66,0.00,,,0.00,WSDL version 430,2013-07-10 07:59:00,
2013-07-10 03:04:00,78.0,65.4,30.12,SSW,203,0.0,1.3,65,0.00,,,0.00,WSDL version 430,2013-07-10 08:04:00,
2013-07-10 03:09:00,77.6,64.9,30.12,SSW,203,0.0,1.3,65,0.00,,,0.00,WSDL version 430,2013-07-10 08:09:00,
2013-07-10 03:14:00,77.7,65.2,30.15,SSW,203,0.7,1.3,66,0.00,,,0.00,WSDL version 430,2013-07-10 08:14:00,
2013-07-10 03:19:00,78.7,66.1,30.15,SSW,203,0.0,1.3,65,0.00,,,0.00,WSDL version 430,2013-07-10 08:19:00,
2013-07-10 03:27:00,77.9,64.8,30.15,WSW,255,0.0,1.3,64,0.00,,,0.00,WSDL version 427,2013-07-10 08:27:00,
2013-07-10 03:32:00,77.4,64.7,30.09,WNW,285,0.0,0.0,65,0.00,,,0.00,WSDL version 427,2013-07-10 08:32:00,
2013-07-10 03:37:00,77.0,64.8,30.09,WNW,285,0.0,0.0,66,0.00,,,0.00,WSDL version 427,2013-07-10 08:37:00,
2013-07-10 03:42:00,76.8,65.0,30.09,WNW,285,0.0,0.0,67,0.00,,,0.00,WSDL version 427,2013-07-10 08:42:00,
2013-07-10 03:47:00,77.0,65.2,30.09,WNW,285,0.0,0.0,67,0.00,,,0.00,WSDL version 427,2013-07-10 08:47:00,
2013-07-10 03:52:00,77.4,65.6,30.09,WNW,285,0.0,0.0,67,0.00,,,0.00,WSDL version 427,2013-07-10 08:52:00,
2013-07-10 03:57:00,77.2,65.4,30.09,WNW,300,1.2,2.5,67,0.00,,,0.00,WSDL version 427,2013-07-10 08:57:00,
2013-07-10 04:02:00,76.8,65.0,30.15,NNW,345,1.5,2.5,67,0.00,,,0.00,WSDL version 427,2013-07-10 09:02:00,
2013-07-10 04:07:00,76.8,65.0,30.15,NW,315,0.4,2.5,67,0.00,,,0.00,WSDL version 427,2013-07-10 09:07:00,
2013-07-10 04:12:00,77.4,65.6,30.15,NW,323,0.0,1.3,67,0.00,,,0.00,WSDL version 427,2013-07-10 09:12:00,
2013-07-10 04:17:00,77.5,65.7,30.15,NNW,345,1.9,2.5,67,0.00,,,0.00,WSDL version 427,2013-07-10 09:17:00,
2013-07-10 04:22:00,77.4,65.1,30.15,NE,45,1.0,2.5,66,0.00,,,0.00,WSDL version 427,2013-07-10 09:22:00,
2013-07-10 04:27:00,77.2,65.0,30.15,NE,45,0.0,2.0,66,0.00,,,0.00,WSDL version 427,2013-07-10 09:27:00,
2013-07-10 04:32:00,77.4,65.6,30.12,NE,45,0.0,0.9,67,0.00,,,0.00,WSDL version 427,2013-07-10 09:32:00,
2013-07-10 04:37:00,77.4,65.6,30.12,NE,45,0.0,0.0,67,0.00,,,0.00,WSDL version 427,2013-07-10 09:37:00,
2013-07-10 04:42:00,77.2,65.4,30.12,NE,45,0.0,0.0,67,0.00,,,0.00,WSDL version 427,2013-07-10 09:42:00,
2013-07-10 04:47:00,76.8,65.5,30.15,NE,45,0.0,0.0,68,0.00,,,0.00,WSDL version 427,2013-07-10 09:47:00,
2013-07-10 23:29:00,82.6,69.8,30.12,East,90,0.0,0.0,65,0.00,,,0.00,WSDL version 427,2013-07-11 04:29:00,
2013-07-10 23:34:00,82.2,69.7,30.12,East,90,0.0,0.0,66,0.00,,,0.00,WSDL version 427,2013-07-11 04:34:00,
2013-07-10 23:39:00,82.5,70.0,30.12,East,90,0.0,0.0,66,0.00,,,0.00,WSDL version 427,2013-07-11 04:39:00,
2013-07-10 23:44:00,82.7,70.2,30.12,East,90,0.0,0.0,66,0.00,,,0.00,WSDL version 427,2013-07-11 04:44:00,
2013-07-10 23:49:00,82.8,70.2,30.12,SSW,203,0.0,0.0,66,0.00,,,0.00,WSDL version 427,2013-07-11 04:49:00,
2013-07-10 23:54:00,82.8,70.2,30.12,SW,234,0.0,0.0,66,0.00,,,0.00,WSDL version 427,2013-07-11 04:54:00,
2013-07-10 23:59:00,82.5,70.0,30.12,WSW,248,0.8,1.6,66,0.00,,,0.00,WSDL version 427,2013-07-11 04:59:00,